NWS Melbourne » East Central Florida Hourly Weather Roundup

MIARWRMLB 000
TTAA00 KMLB 230411
HOURLY WEATHER ROUNDUP AROUND FLORIDA
NATIONAL WEATHER SERVICE OFFICE MELBOURNE FL
1200 AM EDT THU OCT 23 2014
  
CITY           SKY/WX    TMP DP  RH WIND       PRES   REMARKS
MELBOURNE      MOCLDY    74  62  66 NE10      29.97F                  
FORT PIERCE    CLOUDY    75  63  66 NE3       29.95F                  
ORLANDO INTL   PTCLDY    67  60  78 NE9       30.00F                  
DAYTONA BEACH  PTCLDY    68  52  56 NE12      30.01F                  
VERO BEACH     CLOUDY    74  64  71 NE8       29.96F                  
$$
...ELSEWHERE ACROSS CENTRAL FLORIDA...
  
CITY           SKY/WX    TMP DP  RH WIND       PRES   REMARKS
PATRICK AFB    MOCLDY    74  62  66 N16       29.97F                  
JFK SPACE CTR  MOCLDY    70  58  65 NE12      29.99F                  
CAPE CANAVERAL MOCLDY    72  59  64 NE10      29.98S                  
ORLANDO EXEC   PTCLDY    69  59  70 NE7       30.00F                  
LEESBURG       PTCLDY    65  56  72 NE9       30.02F                  
SANFORD        PTCLDY    65  57  75 N7        30.00F                  
WINTER HAVEN   MOCLDY    68  60  75 NE8       30.01S                  
OKEECHOBEE       N/A     70  64  83 MISG        N/A                   
TAMPA          MOCLDY    70  60  70 NE10G20   29.99S                  
$$
...NORTHERN FLORIDA...
  
CITY           SKY/WX    TMP DP  RH WIND       PRES   REMARKS
DELAND         PTCLDY    63  55  77 N5        30.02F                  
PALM COAST     CLEAR     65  52  61 NE6       30.03F                  
ST AUGUSTINE   MOCLDY    67  52  58 NE8       30.05F                  
OCALA          CLOUDY    63  52  67 NE5       30.02F                  
GAINESVILLE    PTCLDY    58  53  84 N3        30.04F                  
JACKSONVILLE   PTCLDY    53  52  96 CALM      30.06S                  
TALLAHASSEE    CLEAR     60  45  57 N3        30.07S                  
$$
...ALONG THE SOUTHEAST COAST TO THE KEYS...
  
CITY           SKY/WX    TMP DP  RH WIND       PRES   REMARKS
STUART         CLOUDY    77  64  65 NE9       29.96F                  
WEST PALM BCH  CLOUDY    79  70  74 N7        29.92F                  
MIAMI          CLOUDY    75  73  93 CALM      29.93F                  
KEY WEST       LGT RAIN  75  74  96 NE6       29.93S                  
$$
...MARINE REPORTS...
  
STATION/POSITION TIME  TEMP    WIND        PRES    WAVE   SWELL
                       AIR SEA DIR/SP/G            HT/PER HT/PER/DIR
                 (UTC) (F)     (DEG/KT/KT) (MB)    (FT/S) (FT/S/D)
ST AUGUSTINE FP  0400   69      50/ 13/ 14 1017.6F
20NM E CAPE CANA 0400   75 82   20/ 14/ 17 1015.2F   3/ 4   2/120/10
120 E NEW SMYRNA 0400   74 81   10/ 14/ 16 1015.3F   4/ 6   2/ 90/11
TRIDENT PIER     0400   71 80   10/  6/  7 1014.9F
SEBASTIAN INLET  0400   76      30/ 14     1015.0S
4NM E PORT CANAV 0400      80                N/A     3/ 4
6NM NE FPR INLET 0400      80                N/A     3/ 4
SETTLEMENT PT GB 0400   80      60/  6/  7 1014.3F
$$
  
 


USA.gov is the U.S. government's official web portal to all federal, state and local government web resources and services.